Location: Chequamegon National Forest
(46.1070°N, 90.8420°W)
Time: 08:25:37
(UTC-06:00)

ISS - All Passes

Search period start: 18 December 2014 00:00
Search period end: 28 December 2014 00:00
Orbit: 404 x 415 km, 51.6° (Epoch: 18 December)

Date Brightness Start Highest point End Pass type
(mag) Time Alt. Az. Time Alt. Az. Time Alt. Az.
18 Dec - 14:33:30 10° SSW 14:36:33 35° SE 14:39:36 10° ENE daylight
18 Dec - 16:09:53 10° W 16:13:05 48° NNW 16:16:18 10° ENE daylight
18 Dec - 17:47:12 10° WNW 17:50:09 29° N 17:53:05 10° ENE visible
18 Dec - 19:23:57 10° WNW 19:27:11 53° NNE 19:30:24 10° E visible
18 Dec - 21:00:44 10° WNW 21:03:39 30° SW 21:06:32 10° SSE night (unlit)
19 Dec - 13:43:26 10° S 13:46:01 21° SE 13:48:36 10° E daylight
19 Dec - 15:19:03 10° WSW 15:22:20 69° NNW 15:25:38 10° ENE daylight
19 Dec - 16:56:19 10° WNW 16:59:17 30° N 17:02:16 10° ENE visible
19 Dec - 18:33:15 10° WNW 18:36:23 40° NNE 18:39:30 10° E visible
19 Dec - 20:09:51 10° WNW 20:13:03 50° SW 20:16:13 10° SE visible
20 Dec - 12:53:56 10° SSE 12:55:29 13° SE 12:57:02 10° ESE daylight
20 Dec - 14:28:17 10° SW 14:31:35 78° SSE 14:34:53 10° ENE daylight
20 Dec - 16:05:20 10° WNW 16:08:23 34° N 16:11:26 10° ENE daylight
20 Dec - 17:42:28 10° WNW 17:45:30 33° N 17:48:32 10° ENE visible
20 Dec - 19:19:02 10° WNW 19:22:20 83° SSW 19:25:36 10° ESE visible
20 Dec - 20:56:44 10° WSW 20:58:27 14° SW 21:00:10 10° SSW night (unlit)
21 Dec - 13:37:39 10° SW 13:40:50 47° SE 13:44:01 10° ENE daylight
21 Dec - 15:14:18 10° W 15:17:27 41° NNW 15:20:37 10° ENE daylight
21 Dec - 16:51:34 10° WNW 16:54:32 30° N 16:57:30 10° ENE visible
21 Dec - 18:28:14 10° WNW 18:31:30 65° NNE 18:34:46 10° ESE visible
21 Dec - 20:05:12 10° W 20:07:51 23° SW 20:10:29 10° SSE visible
22 Dec - 12:47:13 10° SSW 12:50:05 28° SE 12:52:58 10° E daylight
22 Dec - 14:23:15 10° WSW 14:26:30 56° NNW 14:29:46 10° ENE daylight
22 Dec - 16:00:33 10° WNW 16:03:31 30° N 16:06:28 10° ENE daylight
22 Dec - 17:37:22 10° WNW 17:40:34 46° NNE 17:43:45 10° E visible
22 Dec - 19:14:02 10° WNW 19:17:07 38° SW 19:20:10 10° SSE visible
23 Dec - 11:57:08 10° S 11:59:21 17° SE 12:01:34 10° E daylight
23 Dec - 13:32:15 10° WSW 13:35:33 83° NNW 13:38:52 10° ENE daylight
23 Dec - 15:09:25 10° WNW 15:12:26 32° N 15:15:26 10° ENE daylight
23 Dec - 16:46:27 10° WNW 16:49:32 36° NNE 16:52:36 10° E daylight
23 Dec - 18:23:00 10° WNW 18:26:16 64° SSW 18:29:30 10° SE visible
23 Dec - 20:01:59 10° SW 20:02:15 10° SW 20:02:32 10° SW visible
24 Dec - 12:41:20 10° SW 12:44:36 61° SSE 12:47:52 10° ENE daylight
24 Dec - 14:18:13 10° W 14:21:19 37° NNW 14:24:25 10° ENE daylight
24 Dec - 15:55:24 10° WNW 15:58:25 31° N 16:01:24 10° ENE daylight
24 Dec - 17:32:00 10° WNW 17:35:18 80° NNE 17:38:35 10° ESE visible
24 Dec - 19:09:14 10° W 19:11:31 18° SW 19:13:46 10° S visible
25 Dec - 11:50:36 10° SSW 11:53:39 36° SE 11:56:44 10° ENE daylight
25 Dec - 13:26:58 10° W 13:30:11 47° NNW 13:33:23 10° ENE daylight
25 Dec - 15:04:15 10° WNW 15:07:13 29° N 15:10:10 10° ENE daylight
25 Dec - 16:40:58 10° WNW 16:44:13 54° NNE 16:47:27 10° E daylight
25 Dec - 18:17:45 10° WNW 18:20:39 29° SW 18:23:32 10° SSE visible
26 Dec - 11:00:07 10° S 11:02:43 22° SE 11:05:20 10° E daylight
26 Dec - 12:35:44 10° WSW 12:39:02 68° NNW 12:42:19 10° ENE daylight
26 Dec - 14:12:59 10° WNW 14:15:58 30° N 14:18:56 10° ENE daylight
26 Dec - 15:49:53 10° WNW 15:53:02 40° NNE 15:56:10 10° E daylight
26 Dec - 17:26:28 10° WNW 17:29:40 49° SW 17:32:50 10° SE visible
27 Dec - 10:10:13 10° SSE 10:11:48 13° SE 10:13:23 10° ESE daylight
27 Dec - 11:44:35 10° WSW 11:47:52 79° SSE 11:51:11 10° ENE daylight
27 Dec - 13:21:36 10° WNW 13:24:40 34° N 13:27:43 10° ENE daylight
27 Dec - 14:58:43 10° WNW 15:01:45 33° N 15:04:47 10° ENE daylight
27 Dec - 16:35:15 10° WNW 16:38:33 83° SSW 16:41:50 10° ESE daylight
27 Dec - 18:12:57 10° WSW 18:14:39 14° SW 18:16:21 10° SSW visible
